This demonstration page uses our WeatherBlox Daily Observations layout. Learn more.

Left ArrowRight Arrow

39.01783, -85.05884

Hourly Observations for October 5, 2018

Temp ( °F °C ) Dew Point ( °F °C ) Humidity (%) Winds ( mph kmh ) Pressure ( in mb ) Visibility ( mi km ) Precip ( " mm )
12:52 am 00:52 Partly Cloudy 66 18.9 62 16.7 87 87 E 12 19 30.09 1019 10 16 N/A
1:25 am 01:25 Cloudy 67 19.4 62 16.7 84 84 ENE 15 24 30.09 1019 10 16 N/A
1:52 am 01:52 Cloudy 66 18.9 62 16.7 87 87 E 10 17 30.08 1019 10 16 N/A
2:52 am 02:52 Cloudy 66 18.9 62 16.7 87 87 E 9 15 30.08 1019 10 16 N/A
3:52 am 03:52 Cloudy 66 18.9 62 16.7 87 87 ENE 7 11 30.07 1018 10 16 N/A
4:36 am 04:36 Cloudy 66 18.9 62 16.7 87 87 E 9 15 30.06 1018 9 14 N/A
4:52 am 04:52 Cloudy 65 18.3 62 16.7 90 90 E 9 15 30.06 1018 10 16 N/A
5:52 am 05:52 Cloudy 64 17.8 62 16.7 93 93 E 9 15 30.06 1018 8 13 N/A
6:52 am 06:52 Cloudy 64 17.8 62 16.7 93 93 E 10 17 30.07 1018 8 13 N/A
7:52 am 07:52 Cloudy with Mist and Fog 64 17.8 63 17.2 96 96 SE 7 11 30.07 1018 5 8 N/A
8:13 am 08:13 Cloudy with Mist and Fog 64 17.8 63 17.2 96 96 ESE 7 11 30.09 1019 2 3 N/A
8:52 am 08:52 Cloudy with Mist and Fog 64 17.8 63 17.2 96 96 ESE 6 9 30.08 1019 2 2 N/A
9:52 am 09:52 Cloudy with Mist and Fog 65 18.3 65 18.3 100 100 SE 7 11 30.08 1019 2 2 N/A
10:52 am 10:52 Cloudy with Mist and Fog 68 20 67 19.4 96 96 SSE 8 13 30.07 1018 2 3 N/A
11:07 am 11:07 Cloudy with Mist and Fog 69 20.6 68 20 96 96 S 8 13 30.06 1018 3 5 N/A
11:52 am 11:52 Cloudy with Mist and Fog 72 22.2 69 20.6 91 91 S 9 15 30.06 1018 6 10 N/A
12:09 pm 12:09 Mostly Cloudy 73 22.8 70 21.1 90 90 S 9 15 30.06 1018 7 11 N/A
12:37 pm 12:37 Mostly Cloudy 75 23.9 70 21.1 84 84 SSW 7 11 30.03 1017 8 13 N/A
12:52 pm 12:52 Mostly Cloudy 78 25.6 71 21.7 79 79 SW 7 11 30.04 1017 8 13 N/A
1:12 pm 13:12 Partly Cloudy 78 25.6 71 21.7 79 79 WSW 8 13 30.03 1017 9 14 N/A
1:52 pm 13:52 Mostly Sunny 81 27.2 72 22.2 74 74 SW 8 13 30.02 1017 10 16 N/A
2:52 pm 14:52 Partly Cloudy 81 27.2 72 22.2 74 74 N N/A 29.99 1016 10 16 N/A
3:52 pm 15:52 Mostly Cloudy with Light Rain 82 27.8 72 22.2 72 72 SW 7 11 29.99 1016 7 11 N/A
4:52 pm 16:52 Partly Cloudy 80 26.7 72 22.2 76 76 S 9 15 29.98 1015 10 16 N/A
5:52 pm 17:52 Partly Cloudy 80 26.7 71 21.7 74 74 S 6 9 29.99 1016 10 16 N/A
6:52 pm 18:52 Mostly Cloudy 75 23.9 71 21.7 88 88 SSE 7 11 29.99 1016 10 16 N/A
7:52 pm 19:52 Mostly Cloudy 78 25.6 70 21.1 76 76 SW 6 9 30.00 1016 10 16 N/A
8:52 pm 20:52 Partly Cloudy 73 22.8 70 21.1 90 90 S 5 7 30.02 1017 10 16 N/A
9:52 pm 21:52 Mostly Clear 73 22.8 71 21.7 94 94 S 5 7 30.03 1017 10 16 N/A
10:52 pm 22:52 Mostly Clear 71 21.7 70 21.1 96 96 S 6 9 30.03 1017 7 11 N/A
11:52 pm 23:52 Clear 73 22.8 71 21.7 94 94 SSW 6 9 30.02 1017 10 16 N/A

Powered by AerisWeather